Weather Roundup
Issued by NWS Chicago, IL

Home | Current Version | Previous Version | Text Only | Print | Product List | Glossary On
Versions: 1 2 3 4 5 6 7 8 9 10 11 12 13 14 15 16 17 18 19 20 21 22 23 24 25 26 27 28 29 30 31 32 33 34 35 36 37 38 39 40 41 42 43 44 45 46 47 48 49 50
000
NZUS59 KLOT 030312
HRRLOT

CHICAGO AREA WEATHER ROUNDUP
NATIONAL WEATHER SERVICE CHICAGO/ROMEOVILLE IL
900 PM CST FRI DEC 02 2016

NOTE: "FAIR" INDICATES FEW OR NO CLOUDS BELOW 12,000 FEET WITH NO
SIGNIFICANT WEATHER AND/OR OBSTRUCTIONS TO VISIBILITY.

* THESE STATIONS ARE NOT UNDER NWS QUALITY CONTROL. THEY ALSO MAY NOT
  REPORT WEATHER SUCH AS PRECIPITATION OR FOG.

ILZ005-006-012>014-019>023-030400-
NORTHEAST ILLINOIS

CITY           SKY/WX    TMP DP  RH WIND       PRES   REMARKS
OHARE          CLOUDY    35  24  64 NW7       30.30R WCI  29
MIDWAY         CLOUDY    37  24  59 W9        30.30S
AURORA         CLOUDY    34  26  72 NW5       30.32R WCI  30
LANSING*       CLOUDY    36  27  70 W7        30.31R
JOLIET*        CLOUDY    36  26  67 N6        30.33R
WAUKEGAN       CLOUDY    34  23  64 W3        30.30R
DUPAGE AIRPORT CLOUDY    34  24  67 W7        30.30R WCI  28
WHEELING       CLOUDY    34  24  67 NW7       30.32R WCI  28
KANKAKEE*      CLOUDY    37  32  81 W3        30.33R
MORRIS*        CLOUDY    35  29  78 CALM      30.32R
LEWIS AIRPORT* CLOUDY    34  28  77 W9        30.32R WCI  26
NORTHERLY ISL    N/A     37  25  62 NW6         N/A
$$

WIZ051-052-058>065-066-070>072-030400-
SOUTHEAST WISCONSIN

CITY           SKY/WX    TMP DP  RH WIND       PRES   REMARKS
MILWAUKEE      CLOUDY    35  23  61 W7        30.29R WCI  29
KENOSHA*       CLOUDY    33  25  72 NW5       30.30R WCI  29
RACINE*        CLOUDY    34  23  64 W5        30.31R WCI  30
BURLINGTON     CLOUDY    32  24  73 CALM      30.30R
WAUKESHA       CLOUDY    30  23  74 W6        30.30R WCI  24
WEST BEND      CLOUDY    32  27  80 W7        30.28R WCI  26
$$

INZ001>003-010>013-019-020-030400-
NORTHWEST INDIANA

CITY           SKY/WX    TMP DP  RH WIND       PRES   REMARKS
GARY*          CLOUDY    39  25  56 W8        30.31S
MICHIGAN CITY* NOT AVBL
RENSSELAER*    NOT AVBL
VALPARAISO     CLOUDY    38  26  62 NW9       30.30R
$$

LMZ740>746-030400-
SOUTHERN LAKE MICHIGAN

STATION/POSITION TIME  SKY/WX   TEMP WIND        PRES    VSBY
                                AIR  DIR/SP/G
                 (UTC)          (F)  (DEG/KT/KT) (MB)    (MI)
HARRISON CRIB    0240            38  330/ 10/ 12   N/A
BURNHAM HARBOR   0300            37  290/  5/  8   N/A
CALUMET HARBOR   0248            37  240/  5/  8 1025.4R
BURNS HARBOR     0240            40  280/ 10/ 17 1026.1R
MICHIGAN CITY    0240            38  320/  8/ 11   N/A
$$

ABBREVIATIONS USED IN REMARKS
   TC - TEMPERATURE IN CELSIUS
  WCI - WIND CHILL INDEX
   HX - HEAT INDEX
  VSB - VISIBILITY
$$



USA.gov is the U.S. government's official web portal to all federal, state and local government web resources and services.